Year,Month,Day,Hour,Minute,Value (Times are PST for temperature in C)
2017,06,25,00,00,18.70
2017,06,25,00,01,18.70
2017,06,25,00,02,18.70
2017,06,25,00,03,18.60
2017,06,25,00,04,18.60
2017,06,25,00,05,18.60
2017,06,25,00,06,18.60
2017,06,25,00,07,18.60
2017,06,25,00,08,18.60
2017,06,25,00,09,18.60
2017,06,25,00,10,18.60
2017,06,25,00,11,18.50
2017,06,25,00,12,18.50
2017,06,25,00,13,18.50
2017,06,25,00,14,18.50
2017,06,25,00,15,18.50
2017,06,25,00,16,18.50
2017,06,25,00,17,18.50
2017,06,25,00,18,18.50
2017,06,25,00,19,18.50
2017,06,25,00,20,18.50
2017,06,25,00,21,18.50
2017,06,25,00,22,18.50
2017,06,25,00,23,18.50
2017,06,25,00,24,18.60
2017,06,25,00,25,18.60
2017,06,25,00,26,18.60
2017,06,25,00,27,18.60
2017,06,25,00,28,18.60
2017,06,25,00,29,18.60
2017,06,25,00,30,18.70
2017,06,25,00,31,18.80
2017,06,25,00,32,19.00
2017,06,25,00,33,19.00
2017,06,25,00,34,19.10
2017,06,25,00,35,19.20
2017,06,25,00,36,19.20
2017,06,25,00,37,19.30
2017,06,25,00,38,19.30
2017,06,25,00,39,19.30
2017,06,25,00,40,19.30
2017,06,25,00,41,19.40
2017,06,25,00,42,19.40
2017,06,25,00,43,19.40
2017,06,25,00,44,19.40
2017,06,25,00,45,19.40
2017,06,25,00,46,19.50
2017,06,25,00,47,19.50
2017,06,25,00,48,19.50
2017,06,25,00,49,19.60
2017,06,25,00,50,19.60
2017,06,25,00,51,19.60
2017,06,25,00,52,19.60
2017,06,25,00,53,19.60
2017,06,25,00,54,19.60
2017,06,25,00,55,19.60
2017,06,25,00,56,19.60
2017,06,25,00,57,19.60
2017,06,25,00,58,19.60
2017,06,25,00,59,19.60
2017,06,25,01,00,19.60
2017,06,25,01,01,19.60
2017,06,25,01,02,19.50
2017,06,25,01,03,19.50
2017,06,25,01,04,19.40
2017,06,25,01,05,19.40
2017,06,25,01,06,19.30
2017,06,25,01,07,19.30
2017,06,25,01,08,19.30
2017,06,25,01,09,19.30
2017,06,25,01,10,19.20
2017,06,25,01,11,19.20
2017,06,25,01,12,19.20
2017,06,25,01,13,19.20
2017,06,25,01,14,19.20
2017,06,25,01,15,19.20
2017,06,25,01,16,19.10
2017,06,25,01,17,19.10
2017,06,25,01,18,19.10
2017,06,25,01,19,19.00
2017,06,25,01,20,19.00
2017,06,25,01,21,19.00
2017,06,25,01,22,18.90
2017,06,25,01,23,18.90
2017,06,25,01,24,18.90
2017,06,25,01,25,18.90
2017,06,25,01,26,18.90
2017,06,25,01,27,18.90
2017,06,25,01,28,18.90
2017,06,25,01,29,18.90
2017,06,25,01,30,18.90
2017,06,25,01,31,18.90
2017,06,25,01,32,18.90
2017,06,25,01,33,18.90
2017,06,25,01,34,18.90
2017,06,25,01,35,18.90
2017,06,25,01,36,18.90
2017,06,25,01,37,18.90
2017,06,25,01,38,18.90
2017,06,25,01,39,18.90
2017,06,25,01,40,18.90
2017,06,25,01,41,18.90
2017,06,25,01,42,18.90
2017,06,25,01,43,18.80
2017,06,25,01,44,18.80
2017,06,25,01,45,18.80
2017,06,25,01,46,18.80
2017,06,25,01,47,18.80
2017,06,25,01,48,18.70
2017,06,25,01,49,18.70
2017,06,25,01,50,18.70
2017,06,25,01,51,18.70
2017,06,25,01,52,18.70
2017,06,25,01,53,18.70
2017,06,25,01,54,18.80
2017,06,25,01,55,18.80
2017,06,25,01,56,18.80
2017,06,25,01,57,18.80
2017,06,25,01,58,18.80
2017,06,25,01,59,18.80
2017,06,25,02,00,18.80
2017,06,25,02,01,18.80
2017,06,25,02,02,18.80
2017,06,25,02,03,18.80
2017,06,25,02,04,18.80
2017,06,25,02,05,18.90
2017,06,25,02,06,19.00
2017,06,25,02,07,19.10
2017,06,25,02,08,19.10
2017,06,25,02,09,19.20
2017,06,25,02,10,19.20
2017,06,25,02,11,19.20
2017,06,25,02,12,19.20
2017,06,25,02,13,19.20
2017,06,25,02,14,19.30
2017,06,25,02,15,19.20
2017,06,25,02,16,19.30
2017,06,25,02,17,19.20
2017,06,25,02,18,19.20
2017,06,25,02,19,19.30
2017,06,25,02,20,19.30
2017,06,25,02,21,19.30
2017,06,25,02,22,19.30
2017,06,25,02,23,19.30
2017,06,25,02,24,19.30
2017,06,25,02,25,19.30
2017,06,25,02,26,19.30
2017,06,25,02,27,19.30
2017,06,25,02,28,19.30
2017,06,25,02,29,19.30
2017,06,25,02,30,19.30
2017,06,25,02,31,19.30
2017,06,25,02,32,19.30
2017,06,25,02,33,19.30
2017,06,25,02,34,19.30
2017,06,25,02,35,19.30
2017,06,25,02,36,19.30
2017,06,25,02,37,19.20
2017,06,25,02,38,19.20
2017,06,25,02,39,19.20
2017,06,25,02,40,19.20
2017,06,25,02,41,19.20
2017,06,25,02,42,19.10
2017,06,25,02,43,19.10
2017,06,25,02,44,19.00
2017,06,25,02,45,19.00
2017,06,25,02,46,19.00
2017,06,25,02,47,18.90
2017,06,25,02,48,18.90
2017,06,25,02,49,18.90
2017,06,25,02,50,18.80
2017,06,25,02,51,18.80
2017,06,25,02,52,18.80
2017,06,25,02,53,18.70
2017,06,25,02,54,18.70
2017,06,25,02,55,18.70
2017,06,25,02,56,18.70
2017,06,25,02,57,18.60
2017,06,25,02,58,18.60
2017,06,25,02,59,18.60
2017,06,25,03,00,18.50
2017,06,25,03,01,18.40
2017,06,25,03,02,18.40
2017,06,25,03,03,18.40
2017,06,25,03,04,18.40
2017,06,25,03,05,18.30
2017,06,25,03,06,18.30
2017,06,25,03,07,18.30
2017,06,25,03,08,18.20
2017,06,25,03,09,18.20
2017,06,25,03,10,18.10
2017,06,25,03,11,18.10
2017,06,25,03,12,18.10
2017,06,25,03,13,18.00
2017,06,25,03,14,18.00
2017,06,25,03,15,17.90
2017,06,25,03,16,17.90
2017,06,25,03,17,17.80
2017,06,25,03,18,17.80
2017,06,25,03,19,17.80
2017,06,25,03,20,17.70
2017,06,25,03,21,17.70
2017,06,25,03,22,17.70
2017,06,25,03,23,17.60
2017,06,25,03,24,17.60
2017,06,25,03,25,17.60
2017,06,25,03,26,17.50
2017,06,25,03,27,17.50
2017,06,25,03,28,17.50
2017,06,25,03,29,17.50
2017,06,25,03,30,17.50
2017,06,25,03,31,17.50
2017,06,25,03,32,17.50
2017,06,25,03,33,17.50
2017,06,25,03,34,17.40
2017,06,25,03,35,17.40
2017,06,25,03,36,17.40
2017,06,25,03,37,17.40
2017,06,25,03,38,17.40
2017,06,25,03,39,17.40
2017,06,25,03,40,17.40
2017,06,25,03,41,17.40
2017,06,25,03,42,17.40
2017,06,25,03,43,17.40
2017,06,25,03,44,17.40
2017,06,25,03,45,17.40
2017,06,25,03,46,17.40
2017,06,25,03,47,17.40
2017,06,25,03,48,17.40
2017,06,25,03,49,17.40
2017,06,25,03,50,17.30
2017,06,25,03,51,17.30
2017,06,25,03,52,17.30
2017,06,25,03,53,17.30
2017,06,25,03,54,17.30
2017,06,25,03,55,17.30
2017,06,25,03,56,17.30
2017,06,25,03,57,17.20
2017,06,25,03,58,17.20
2017,06,25,03,59,17.20
2017,06,25,04,00,17.20
2017,06,25,04,01,17.20
2017,06,25,04,02,17.20
2017,06,25,04,03,17.20
2017,06,25,04,04,17.20
2017,06,25,04,05,17.10
2017,06,25,04,06,17.10
2017,06,25,04,07,17.10
2017,06,25,04,08,17.10
2017,06,25,04,09,17.10
2017,06,25,04,10,17.10
2017,06,25,04,11,17.10
2017,06,25,04,12,17.10
2017,06,25,04,13,17.10
2017,06,25,04,14,17.10
2017,06,25,04,15,17.10
2017,06,25,04,16,17.10
2017,06,25,04,17,17.10
2017,06,25,04,18,17.10
2017,06,25,04,19,17.10
2017,06,25,04,20,17.10
2017,06,25,04,21,17.10
2017,06,25,04,22,17.10
2017,06,25,04,23,17.10
2017,06,25,04,24,17.10
2017,06,25,04,25,17.10
2017,06,25,04,26,17.10
2017,06,25,04,27,17.00
2017,06,25,04,28,17.00
2017,06,25,04,29,17.00
2017,06,25,04,30,17.00
2017,06,25,04,31,17.00
2017,06,25,04,32,17.00
2017,06,25,04,33,16.90
2017,06,25,04,34,16.90
2017,06,25,04,35,16.90
2017,06,25,04,36,16.90
2017,06,25,04,37,16.80
2017,06,25,04,38,16.80
2017,06,25,04,39,16.80
2017,06,25,04,40,16.80
2017,06,25,04,41,16.80
2017,06,25,04,42,16.80
2017,06,25,04,43,16.80
2017,06,25,04,44,16.80
2017,06,25,04,45,16.80
2017,06,25,04,46,16.80
2017,06,25,04,47,16.80
2017,06,25,04,48,16.70
2017,06,25,04,49,16.70
2017,06,25,04,50,16.70
2017,06,25,04,51,16.70
2017,06,25,04,52,16.70
2017,06,25,04,53,16.70
2017,06,25,04,54,16.70
2017,06,25,04,55,16.70
2017,06,25,04,56,16.70
2017,06,25,04,57,16.70
2017,06,25,04,58,16.70
2017,06,25,04,59,16.60
2017,06,25,05,00,16.60
2017,06,25,05,01,16.60
2017,06,25,05,02,16.60
2017,06,25,05,03,16.60
2017,06,25,05,04,16.60
2017,06,25,05,05,16.60
2017,06,25,05,06,16.60
2017,06,25,05,07,16.50
2017,06,25,05,08,16.50
2017,06,25,05,09,16.50
2017,06,25,05,10,16.40
2017,06,25,05,11,16.40
2017,06,25,05,12,16.40
2017,06,25,05,13,16.40
2017,06,25,05,14,16.40
2017,06,25,05,15,16.40
2017,06,25,05,16,16.40
2017,06,25,05,17,16.50
2017,06,25,05,18,16.50
2017,06,25,05,19,16.60
2017,06,25,05,20,16.60
2017,06,25,05,21,16.60
2017,06,25,05,22,16.70
2017,06,25,05,23,16.70
2017,06,25,05,24,16.80
2017,06,25,05,25,16.80
2017,06,25,05,26,16.80
2017,06,25,05,27,16.80
2017,06,25,05,28,16.90
2017,06,25,05,29,16.90
2017,06,25,05,30,16.90
2017,06,25,05,31,16.90
2017,06,25,05,32,17.00
2017,06,25,05,33,17.00
2017,06,25,05,34,17.00
2017,06,25,05,35,17.10
2017,06,25,05,36,17.10
2017,06,25,05,37,17.10
2017,06,25,05,38,17.10
2017,06,25,05,39,17.10
2017,06,25,05,40,17.10
2017,06,25,05,41,17.10
2017,06,25,05,42,17.10
2017,06,25,05,43,17.10
2017,06,25,05,44,17.10
2017,06,25,05,45,17.10
2017,06,25,05,46,17.10
2017,06,25,05,47,17.20
2017,06,25,05,48,17.20
2017,06,25,05,49,17.20
2017,06,25,05,50,17.20
2017,06,25,05,51,17.20
2017,06,25,05,52,17.30
2017,06,25,05,53,17.30
2017,06,25,05,54,17.30
2017,06,25,05,55,17.30
2017,06,25,05,56,17.30
2017,06,25,05,57,17.30
2017,06,25,05,58,17.30
2017,06,25,05,59,17.40
2017,06,25,06,00,17.30
2017,06,25,06,01,17.30
2017,06,25,06,02,17.30
2017,06,25,06,03,17.30
2017,06,25,06,04,17.30
2017,06,25,06,05,17.30
2017,06,25,06,06,17.30
2017,06,25,06,07,17.30
2017,06,25,06,08,17.30
2017,06,25,06,09,17.30
2017,06,25,06,10,17.30
2017,06,25,06,11,17.40
2017,06,25,06,12,17.40
2017,06,25,06,13,17.40
2017,06,25,06,14,17.50
2017,06,25,06,15,17.50
2017,06,25,06,16,17.50
2017,06,25,06,17,17.60
2017,06,25,06,18,17.60
2017,06,25,06,19,17.60
2017,06,25,06,20,17.60
2017,06,25,06,21,17.60
2017,06,25,06,22,17.70
2017,06,25,06,23,17.70
2017,06,25,06,24,17.80
2017,06,25,06,25,17.80
2017,06,25,06,26,17.80
2017,06,25,06,27,17.80
2017,06,25,06,28,17.80
2017,06,25,06,29,17.80
2017,06,25,06,30,17.80
2017,06,25,06,31,17.90
2017,06,25,06,32,17.90
2017,06,25,06,33,17.90
2017,06,25,06,34,17.90
2017,06,25,06,35,17.80
2017,06,25,06,36,17.80
2017,06,25,06,37,17.80
2017,06,25,06,38,17.80
2017,06,25,06,39,17.80
2017,06,25,06,40,17.90
2017,06,25,06,41,17.90
2017,06,25,06,42,18.00
2017,06,25,06,43,18.00
2017,06,25,06,44,18.10
2017,06,25,06,45,18.10
2017,06,25,06,46,18.20
2017,06,25,06,47,18.20
2017,06,25,06,48,18.20
2017,06,25,06,49,18.20
2017,06,25,06,50,18.20
2017,06,25,06,51,18.30
2017,06,25,06,52,18.30
2017,06,25,06,53,18.30
2017,06,25,06,54,18.30
2017,06,25,06,55,18.40
2017,06,25,06,56,18.40
2017,06,25,06,57,18.40
2017,06,25,06,58,18.40
2017,06,25,06,59,18.40
2017,06,25,07,00,18.40
2017,06,25,07,01,18.40
2017,06,25,07,02,18.50
2017,06,25,07,03,18.50
2017,06,25,07,04,18.50
2017,06,25,07,05,18.50
2017,06,25,07,06,18.50
2017,06,25,07,07,18.50
2017,06,25,07,08,18.40
2017,06,25,07,09,18.40
2017,06,25,07,10,18.40
2017,06,25,07,11,18.40
2017,06,25,07,12,18.40
2017,06,25,07,13,18.40
2017,06,25,07,14,18.40
2017,06,25,07,15,18.40
2017,06,25,07,16,18.40
2017,06,25,07,17,18.40
2017,06,25,07,18,18.40
2017,06,25,07,19,18.40
2017,06,25,07,20,18.40
2017,06,25,07,21,18.40
2017,06,25,07,22,18.40
2017,06,25,07,23,18.40
2017,06,25,07,24,18.40
2017,06,25,07,25,18.40
2017,06,25,07,26,18.40
2017,06,25,07,27,18.40
2017,06,25,07,28,18.40
2017,06,25,07,29,18.40
2017,06,25,07,30,18.40
2017,06,25,07,31,18.40
2017,06,25,07,32,18.40
2017,06,25,07,33,18.40
2017,06,25,07,34,18.40
2017,06,25,07,35,18.40
2017,06,25,07,36,18.40
2017,06,25,07,37,18.50
2017,06,25,07,38,18.50
2017,06,25,07,39,18.50
2017,06,25,07,40,18.50
2017,06,25,07,41,18.50
2017,06,25,07,42,18.60
2017,06,25,07,43,18.60
2017,06,25,07,44,18.60
2017,06,25,07,45,18.60
2017,06,25,07,46,18.60
2017,06,25,07,47,18.60
2017,06,25,07,48,18.60
2017,06,25,07,49,18.60
2017,06,25,07,50,18.60
2017,06,25,07,51,18.60
2017,06,25,07,52,18.60
2017,06,25,07,53,18.70
2017,06,25,07,54,18.70
2017,06,25,07,55,18.70
2017,06,25,07,56,18.70
2017,06,25,07,57,18.70
2017,06,25,07,58,18.70
2017,06,25,07,59,18.70
2017,06,25,08,00,18.70
2017,06,25,08,01,18.70
2017,06,25,08,02,18.80
2017,06,25,08,03,18.80
2017,06,25,08,04,18.80
2017,06,25,08,05,18.80
2017,06,25,08,06,18.80
2017,06,25,08,07,18.90
2017,06,25,08,08,18.90
2017,06,25,08,09,18.90
2017,06,25,08,10,18.90
2017,06,25,08,11,18.90
2017,06,25,08,12,19.00
2017,06,25,08,13,19.00
2017,06,25,08,14,19.10
2017,06,25,08,15,19.10
2017,06,25,08,16,19.20
2017,06,25,08,17,19.30
2017,06,25,08,18,19.30
2017,06,25,08,19,19.40
2017,06,25,08,20,19.50
2017,06,25,08,21,19.60
2017,06,25,08,22,19.60
2017,06,25,08,23,19.70
2017,06,25,08,24,19.70
2017,06,25,08,25,19.80
2017,06,25,08,26,19.80
2017,06,25,08,27,19.90
2017,06,25,08,28,19.90
2017,06,25,08,29,19.90
2017,06,25,08,30,20.00
2017,06,25,08,31,19.90
2017,06,25,08,32,19.90
2017,06,25,08,33,19.80
2017,06,25,08,34,19.70
2017,06,25,08,35,19.70
2017,06,25,08,36,19.70
2017,06,25,08,37,19.60
2017,06,25,08,38,19.60
2017,06,25,08,39,19.60
2017,06,25,08,40,19.70
2017,06,25,08,41,19.70
2017,06,25,08,42,19.70
2017,06,25,08,43,19.70
2017,06,25,08,44,19.70
2017,06,25,08,45,19.80
2017,06,25,08,46,19.80
2017,06,25,08,47,19.70
2017,06,25,08,48,19.70
2017,06,25,08,49,19.70
2017,06,25,08,50,19.70
2017,06,25,08,51,19.80
2017,06,25,08,52,19.90
2017,06,25,08,53,20.00
2017,06,25,08,54,20.10
2017,06,25,08,55,20.10
2017,06,25,08,56,20.10
2017,06,25,08,57,20.20
2017,06,25,08,58,20.20
2017,06,25,08,59,20.20
2017,06,25,09,00,20.20
2017,06,25,09,01,20.20
2017,06,25,09,02,20.20
2017,06,25,09,03,20.20
2017,06,25,09,04,20.20
2017,06,25,09,05,20.20
2017,06,25,09,06,20.20
2017,06,25,09,07,20.20
2017,06,25,09,08,20.20
2017,06,25,09,09,20.20
2017,06,25,09,10,20.20
2017,06,25,09,11,20.30
2017,06,25,09,12,20.30
2017,06,25,09,13,20.40
2017,06,25,09,14,20.40
2017,06,25,09,15,20.50
2017,06,25,09,16,20.60
2017,06,25,09,17,20.60
2017,06,25,09,18,20.60
2017,06,25,09,19,20.70
2017,06,25,09,20,20.70
2017,06,25,09,21,20.80
2017,06,25,09,22,20.90
2017,06,25,09,23,21.00
2017,06,25,09,24,21.10
2017,06,25,09,25,21.10
2017,06,25,09,26,21.10
2017,06,25,09,27,21.20
2017,06,25,09,28,21.20
2017,06,25,09,29,21.30
2017,06,25,09,30,21.30
2017,06,25,09,31,21.30
2017,06,25,09,32,21.20
2017,06,25,09,33,21.20
2017,06,25,09,34,21.30
2017,06,25,09,35,21.30
2017,06,25,09,36,21.30
2017,06,25,09,37,21.30
2017,06,25,09,38,21.30
2017,06,25,09,39,21.30
2017,06,25,09,40,21.40
2017,06,25,09,41,21.40
2017,06,25,09,42,21.50
2017,06,25,09,43,21.50
2017,06,25,09,44,21.60
2017,06,25,09,45,21.70
2017,06,25,09,46,21.80
2017,06,25,09,47,21.80
2017,06,25,09,48,21.80
2017,06,25,09,49,21.80
2017,06,25,09,50,21.80
2017,06,25,09,51,21.80
2017,06,25,09,52,21.70
2017,06,25,09,53,21.70
2017,06,25,09,54,21.60
2017,06,25,09,55,21.60
2017,06,25,09,56,21.70
2017,06,25,09,57,21.70
2017,06,25,09,58,21.70
2017,06,25,09,59,21.70
2017,06,25,10,00,21.80
2017,06,25,10,01,21.90
2017,06,25,10,02,21.90
2017,06,25,10,03,22.00
2017,06,25,10,04,22.00
2017,06,25,10,05,22.10
2017,06,25,10,06,22.10
2017,06,25,10,07,22.20
2017,06,25,10,08,22.20
2017,06,25,10,09,22.20
2017,06,25,10,10,22.20
2017,06,25,10,11,22.20
2017,06,25,10,12,22.20
2017,06,25,10,13,22.20
2017,06,25,10,14,22.20
2017,06,25,10,15,22.10
2017,06,25,10,16,22.10
2017,06,25,10,17,22.10
2017,06,25,10,18,22.10
2017,06,25,10,19,22.10
2017,06,25,10,20,22.10
2017,06,25,10,21,22.10
2017,06,25,10,22,22.10
2017,06,25,10,23,22.10
2017,06,25,10,24,22.10
2017,06,25,10,25,22.10
2017,06,25,10,26,22.10
2017,06,25,10,27,22.10
2017,06,25,10,28,22.10
2017,06,25,10,29,22.10
2017,06,25,10,30,22.10
2017,06,25,10,31,22.20
2017,06,25,10,32,22.20
2017,06,25,10,33,22.20
2017,06,25,10,34,22.10
2017,06,25,10,35,22.10
2017,06,25,10,36,22.20
2017,06,25,10,37,22.30
2017,06,25,10,38,22.30
2017,06,25,10,39,22.40
2017,06,25,10,40,22.50
2017,06,25,10,41,22.60
2017,06,25,10,42,22.50
2017,06,25,10,43,22.60
2017,06,25,10,44,22.70
2017,06,25,10,45,22.70
2017,06,25,10,46,22.70
2017,06,25,10,47,22.70
2017,06,25,10,48,22.70
2017,06,25,10,49,22.70
2017,06,25,10,50,22.70
2017,06,25,10,51,22.70
2017,06,25,10,52,22.80
2017,06,25,10,53,22.90
2017,06,25,10,54,22.80
2017,06,25,10,55,22.80
2017,06,25,10,56,22.70
2017,06,25,10,57,22.60
2017,06,25,10,58,22.60
2017,06,25,10,59,22.70
2017,06,25,11,00,22.70
2017,06,25,11,01,22.70
2017,06,25,11,02,22.70
2017,06,25,11,03,22.70
2017,06,25,11,04,22.70
2017,06,25,11,05,22.70
2017,06,25,11,06,22.60
2017,06,25,11,07,22.60
2017,06,25,11,08,22.60
2017,06,25,11,09,22.60
2017,06,25,11,10,22.70
2017,06,25,11,11,22.80
2017,06,25,11,12,22.90
2017,06,25,11,13,22.90
2017,06,25,11,14,23.00
2017,06,25,11,15,23.10
2017,06,25,11,16,23.10
2017,06,25,11,17,23.20
2017,06,25,11,18,23.20
2017,06,25,11,19,23.20
2017,06,25,11,20,23.10
2017,06,25,11,21,23.10
2017,06,25,11,22,23.10
2017,06,25,11,23,23.20
2017,06,25,11,24,23.30
2017,06,25,11,25,23.30
2017,06,25,11,26,23.30
2017,06,25,11,27,23.40
2017,06,25,11,28,23.40
2017,06,25,11,29,23.60
2017,06,25,11,30,23.60
2017,06,25,11,31,23.70
2017,06,25,11,32,23.80
2017,06,25,11,33,23.90
2017,06,25,11,34,24.00
2017,06,25,11,35,24.10
2017,06,25,11,36,24.00
2017,06,25,11,37,24.00
2017,06,25,11,38,24.00
2017,06,25,11,39,24.00
2017,06,25,11,40,24.10
2017,06,25,11,41,24.10
2017,06,25,11,42,24.10
2017,06,25,11,43,24.10
2017,06,25,11,44,24.20
2017,06,25,11,45,24.10
2017,06,25,11,46,24.10
2017,06,25,11,47,24.10
2017,06,25,11,48,24.00
2017,06,25,11,49,24.00
2017,06,25,11,50,24.10
2017,06,25,11,51,24.10
2017,06,25,11,52,24.10
2017,06,25,11,53,24.10
2017,06,25,11,54,24.10
2017,06,25,11,55,24.20
2017,06,25,11,56,24.30
2017,06,25,11,57,24.40
2017,06,25,11,58,24.40
2017,06,25,11,59,24.40
2017,06,25,12,00,24.30
2017,06,25,12,01,24.30
2017,06,25,12,02,24.30
2017,06,25,12,03,24.40
2017,06,25,12,04,24.50
2017,06,25,12,05,24.60
2017,06,25,12,06,24.60
2017,06,25,12,07,24.70
2017,06,25,12,08,24.70
2017,06,25,12,09,24.80
2017,06,25,12,10,24.80
2017,06,25,12,11,24.90
2017,06,25,12,12,24.90
2017,06,25,12,13,25.00
2017,06,25,12,14,25.10
2017,06,25,12,15,25.00
2017,06,25,12,16,24.90
2017,06,25,12,17,24.90
2017,06,25,12,18,24.90
2017,06,25,12,19,24.90
2017,06,25,12,20,25.00
2017,06,25,12,21,25.10
2017,06,25,12,22,25.10
2017,06,25,12,23,25.20
2017,06,25,12,24,25.20
2017,06,25,12,25,25.20
2017,06,25,12,26,25.30
2017,06,25,12,27,25.40
2017,06,25,12,28,25.40
2017,06,25,12,29,25.50
2017,06,25,12,30,25.50
2017,06,25,12,31,25.60
2017,06,25,12,32,25.60
2017,06,25,12,33,25.60
2017,06,25,12,34,25.50
2017,06,25,12,35,25.40
2017,06,25,12,36,25.50
2017,06,25,12,37,25.40
2017,06,25,12,38,25.40
2017,06,25,12,39,25.40
2017,06,25,12,40,25.40
2017,06,25,12,41,25.40
2017,06,25,12,42,25.50
2017,06,25,12,43,25.60
2017,06,25,12,44,25.70
2017,06,25,12,45,25.80
2017,06,25,12,46,25.80
2017,06,25,12,47,25.80
2017,06,25,12,48,25.80
2017,06,25,12,49,25.80
2017,06,25,12,50,25.70
2017,06,25,12,51,25.60
2017,06,25,12,52,25.60
2017,06,25,12,53,25.60
2017,06,25,12,54,25.70
2017,06,25,12,55,25.70
2017,06,25,12,56,25.70
2017,06,25,12,57,25.70
2017,06,25,12,58,25.70
2017,06,25,12,59,25.70
2017,06,25,13,00,25.70
2017,06,25,13,01,25.80
2017,06,25,13,02,26.00
2017,06,25,13,03,26.20
2017,06,25,13,04,26.30
2017,06,25,13,05,26.40
2017,06,25,13,06,26.40
2017,06,25,13,07,26.40
2017,06,25,13,08,26.40
2017,06,25,13,09,26.50
2017,06,25,13,10,26.50
2017,06,25,13,11,26.60
2017,06,25,13,12,26.60
2017,06,25,13,13,26.70
2017,06,25,13,14,26.70
2017,06,25,13,15,26.70
2017,06,25,13,16,26.80
2017,06,25,13,17,26.80
2017,06,25,13,18,26.90
2017,06,25,13,19,27.00
2017,06,25,13,20,27.00
2017,06,25,13,21,27.10
2017,06,25,13,22,27.20
2017,06,25,13,23,27.20
2017,06,25,13,24,27.10
2017,06,25,13,25,27.00
2017,06,25,13,26,26.90
2017,06,25,13,27,26.80
2017,06,25,13,28,26.80
2017,06,25,13,29,26.90
2017,06,25,13,30,26.90
2017,06,25,13,31,26.90
2017,06,25,13,32,27.00
2017,06,25,13,33,27.10
2017,06,25,13,34,27.20
2017,06,25,13,35,27.20
2017,06,25,13,36,27.10
2017,06,25,13,37,27.00
2017,06,25,13,38,26.90
2017,06,25,13,39,26.90
2017,06,25,13,40,26.80
2017,06,25,13,41,26.70
2017,06,25,13,42,26.70
2017,06,25,13,43,26.80
2017,06,25,13,44,26.90
2017,06,25,13,45,27.00
2017,06,25,13,46,27.10
2017,06,25,13,47,27.10
2017,06,25,13,48,27.10
2017,06,25,13,49,27.10
2017,06,25,13,50,27.10
2017,06,25,13,51,27.10
2017,06,25,13,52,27.10
2017,06,25,13,53,27.00
2017,06,25,13,54,27.00
2017,06,25,13,55,26.90
2017,06,25,13,56,26.80
2017,06,25,13,57,26.90
2017,06,25,13,58,26.90
2017,06,25,13,59,26.90
2017,06,25,14,00,26.90
2017,06,25,14,01,27.00
2017,06,25,14,02,27.10
2017,06,25,14,03,27.30
2017,06,25,14,04,27.40
2017,06,25,14,05,27.50
2017,06,25,14,06,27.70
2017,06,25,14,07,27.80
2017,06,25,14,08,27.80
2017,06,25,14,09,27.80
2017,06,25,14,10,27.70
2017,06,25,14,11,27.70
2017,06,25,14,12,27.70
2017,06,25,14,13,27.80
2017,06,25,14,14,28.00
2017,06,25,14,15,28.10
2017,06,25,14,16,28.20
2017,06,25,14,17,28.40
2017,06,25,14,18,28.60
2017,06,25,14,19,28.80
2017,06,25,14,20,28.80
2017,06,25,14,21,28.90
2017,06,25,14,22,28.80
2017,06,25,14,23,28.70
2017,06,25,14,24,28.70
2017,06,25,14,25,28.60
2017,06,25,14,26,28.60
2017,06,25,14,27,28.60
2017,06,25,14,28,28.70
2017,06,25,14,29,28.70
2017,06,25,14,30,28.70
2017,06,25,14,31,28.60
2017,06,25,14,32,28.60
2017,06,25,14,33,28.70
2017,06,25,14,34,28.70
2017,06,25,14,35,28.80
2017,06,25,14,36,28.80
2017,06,25,14,37,28.70
2017,06,25,14,38,28.70
2017,06,25,14,39,28.70
2017,06,25,14,40,28.60
2017,06,25,14,41,28.60
2017,06,25,14,42,28.60
2017,06,25,14,43,28.40
2017,06,25,14,44,28.40
2017,06,25,14,45,28.30
2017,06,25,14,46,28.30
2017,06,25,14,47,28.30
2017,06,25,14,48,28.30
2017,06,25,14,49,28.30
2017,06,25,14,50,28.30
2017,06,25,14,51,28.30
2017,06,25,14,52,28.30
2017,06,25,14,53,28.50
2017,06,25,14,54,28.70
2017,06,25,14,55,28.90
2017,06,25,14,56,28.90
2017,06,25,14,57,28.90
2017,06,25,14,58,28.80
2017,06,25,14,59,28.80
2017,06,25,15,00,28.80
2017,06,25,15,01,28.80
2017,06,25,15,02,28.70
2017,06,25,15,03,28.60
2017,06,25,15,04,28.60
2017,06,25,15,05,28.50
2017,06,25,15,06,28.40
2017,06,25,15,07,28.40
2017,06,25,15,08,28.30
2017,06,25,15,09,28.30
2017,06,25,15,10,28.10
2017,06,25,15,11,28.00
2017,06,25,15,12,28.00
2017,06,25,15,13,27.90
2017,06,25,15,14,27.90
2017,06,25,15,15,27.90
2017,06,25,15,16,27.90
2017,06,25,15,17,28.00
2017,06,25,15,18,27.90
2017,06,25,15,19,27.90
2017,06,25,15,20,27.90
2017,06,25,15,21,27.90
2017,06,25,15,22,27.90
2017,06,25,15,23,27.80
2017,06,25,15,24,27.70
2017,06,25,15,25,27.60
2017,06,25,15,26,27.60
2017,06,25,15,27,27.50
2017,06,25,15,28,27.50
2017,06,25,15,29,27.40
2017,06,25,15,30,27.40
2017,06,25,15,31,27.40
2017,06,25,15,32,27.40
2017,06,25,15,33,27.40
2017,06,25,15,34,27.40
2017,06,25,15,35,27.40
2017,06,25,15,36,27.30
2017,06,25,15,37,27.30
2017,06,25,15,38,27.30
2017,06,25,15,39,27.20
2017,06,25,15,40,27.20
2017,06,25,15,41,27.10
2017,06,25,15,42,27.10
2017,06,25,15,43,27.00
2017,06,25,15,44,27.00
2017,06,25,15,45,26.90
2017,06,25,15,46,27.00
2017,06,25,15,47,27.00
2017,06,25,15,48,27.00
2017,06,25,15,49,26.90
2017,06,25,15,50,26.80
2017,06,25,15,51,26.90
2017,06,25,15,52,26.80
2017,06,25,15,53,26.90
2017,06,25,15,54,26.90
2017,06,25,15,55,27.00
2017,06,25,15,56,27.10
2017,06,25,15,57,27.10
2017,06,25,15,58,27.10
2017,06,25,15,59,27.10
2017,06,25,16,00,27.20
2017,06,25,16,01,27.30
2017,06,25,16,02,27.30
2017,06,25,16,03,27.30
2017,06,25,16,04,27.30
2017,06,25,16,05,27.30
2017,06,25,16,06,27.30
2017,06,25,16,07,27.30
2017,06,25,16,08,27.30
2017,06,25,16,09,27.40
2017,06,25,16,10,27.40
2017,06,25,16,11,27.40
2017,06,25,16,12,27.40
2017,06,25,16,13,27.40
2017,06,25,16,14,27.40
2017,06,25,16,15,27.40
2017,06,25,16,16,27.40
2017,06,25,16,17,27.40
2017,06,25,16,18,27.50
2017,06,25,16,19,27.50
2017,06,25,16,20,27.60
2017,06,25,16,21,27.70
2017,06,25,16,22,27.80
2017,06,25,16,23,27.90
2017,06,25,16,24,27.90
2017,06,25,16,25,28.00
2017,06,25,16,26,28.10
2017,06,25,16,27,28.20
2017,06,25,16,28,28.20
2017,06,25,16,29,28.30
2017,06,25,16,30,28.30
2017,06,25,16,31,28.30
2017,06,25,16,32,28.30
2017,06,25,16,33,28.20
2017,06,25,16,34,28.20
2017,06,25,16,35,28.20
2017,06,25,16,36,28.30
2017,06,25,16,37,28.30
2017,06,25,16,38,28.30
2017,06,25,16,39,28.40
2017,06,25,16,40,28.40
2017,06,25,16,41,28.50
2017,06,25,16,42,28.60
2017,06,25,16,43,28.70
2017,06,25,16,44,28.80
2017,06,25,16,45,28.90
2017,06,25,16,46,29.00
2017,06,25,16,47,29.10
2017,06,25,16,48,29.20
2017,06,25,16,49,29.20
2017,06,25,16,50,29.20
2017,06,25,16,51,29.20
2017,06,25,16,52,29.10
2017,06,25,16,53,29.10
2017,06,25,16,54,29.00
2017,06,25,16,55,29.00
2017,06,25,16,56,28.90
2017,06,25,16,57,28.80
2017,06,25,16,58,28.70
2017,06,25,16,59,28.70
2017,06,25,17,00,28.70
2017,06,25,17,01,28.70
2017,06,25,17,02,28.70
2017,06,25,17,03,28.70
2017,06,25,17,04,28.80
2017,06,25,17,05,28.80
2017,06,25,17,06,28.80
2017,06,25,17,07,28.80
2017,06,25,17,08,28.90
2017,06,25,17,09,28.80
2017,06,25,17,10,28.80
2017,06,25,17,11,28.80
2017,06,25,17,12,28.80
2017,06,25,17,13,28.80
2017,06,25,17,14,28.80
2017,06,25,17,15,28.70
2017,06,25,17,16,28.60
2017,06,25,17,17,28.50
2017,06,25,17,18,28.50
2017,06,25,17,19,28.40